Mazatlan Airport, Mexico

8:03 AM MDT on May 25, 2017 (GMT -0600)
Gen Rafael Buelna International

Weather History for MMMZ - September, 2012

Change the Weather History Date:

Monday, September 3, 2012

  Actual Average Record
Temperature  
Mean Temperature 81 °F -  
Max Temperature 87 °F 87 °F 96 °F (2002)
Min Temperature 75 °F 74 °F 69 °F (2003)
Cooling Degree Days 16    
Growing Degree Days 31 (Base 50)    
Moisture  
Dew Point 75 °F    
Average Humidity 85    
Maximum Humidity 94    
Minimum Humidity 66    
Precipitation  
Precipitation 0.45 in - - ()
Sea Level Pressure  
Sea Level Pressure 29.93 in    
Wind  
Wind Speed 6 mph ()    
Max Wind Speed 10 mph    
Max Gust Speed -    
Visibility 11.2 miles    
Events Rain , Thunderstorm    
Averages and records for this station are not official NWS values.
T = Trace of Precipitation, MM = Missing Value Source: Averaged Metar Reports

Daily Weather History Graph

Daily Weather History Graph

Search for Another Location

Airport or City:

Trip Planner

Search our weather history database for the weather conditions in past years. The results will help you decide how hot, cold, wet, or windy it might be!

Date:

Astronomy

Sep. 03, 2012 Rise Set
Actual Time 6:48 AM MDT 7:19 PM MDT
Civil Twilight 6:25 AM MDT 7:42 PM MDT
Nautical Twilight 5:58 AM MDT 8:09 PM MDT
Astronomical Twilight 5:31 AM MDT 8:36 PM MDT
Moon 9:13 PM MDT (9/3) 9:28 AM MDT (9/3)
Length of Visible Light 13h 17m
Length of Day
12h 31m
Waning Gibbous, 90% of the Moon is Illuminated
Sep 3
Waning Gibbous
Sep 8
Last Quarter
Sep 15
New
Sep 22
First Quarter
Sep 29
Full

Hourly Weather History & Observations

Time (MDT) Temp. Heat Index Dew Point Humidity Pressure Visibility Wind Dir Wind Speed Gust Speed Precip Events Conditions
12:45 AM 77.0 °F - 73.4 °F 89% 29.91 in 10.0 mi NE 5.8 mph - N/A   Mostly Cloudy
1:40 AM 77.0 °F - 73.4 °F 89% 29.90 in 10.0 mi North 6.9 mph - N/A   Mostly Cloudy
2:41 AM 75.2 °F - 71.6 °F 89% 29.92 in 10.0 mi North 9.2 mph - N/A   Mostly Cloudy
3:45 AM 77.0 °F - 73.4 °F 89% 29.90 in 10.0 mi NNE 6.9 mph - N/A   Mostly Cloudy
4:41 AM 75.2 °F - 71.6 °F 89% 29.90 in 10.0 mi NNE 5.8 mph - N/A   Mostly Cloudy
5:40 AM 75.2 °F - 73.4 °F 94% 29.91 in 10.0 mi Calm Calm - N/A   Scattered Clouds
6:49 AM 75.2 °F - 73.4 °F 94% 29.93 in 10.0 mi Calm Calm - N/A   Mostly Cloudy
7:42 AM 77.0 °F - 75.2 °F 94% 29.96 in 10.0 mi SSE 4.6 mph - N/A   Mostly Cloudy
8:47 AM 78.8 °F - 75.2 °F 89% 29.95 in 10.0 mi NE 4.6 mph - N/A   Mostly Cloudy
9:41 AM 80.6 °F 86.2 °F 75.2 °F 84% 29.96 in 10.0 mi ESE 5.8 mph - N/A   Mostly Cloudy
10:42 AM 82.4 °F 90.9 °F 77.0 °F 84% 29.97 in 10.0 mi SSW 5.8 mph - N/A   Mostly Cloudy
11:40 AM 82.4 °F 90.9 °F 77.0 °F 84% 29.99 in 12.0 mi WSW 8.1 mph - N/A   Mostly Cloudy
12:43 PM 86.0 °F 99.3 °F 78.8 °F 79% 29.96 in 12.0 mi West 8.1 mph - N/A   Scattered Clouds
1:42 PM 87.8 °F 97.6 °F 75.2 °F 66% 29.94 in 12.0 mi WSW 8.1 mph - N/A   Scattered Clouds
2:40 PM 87.8 °F 97.6 °F 75.2 °F 66% 29.91 in 14.0 mi SW 9.2 mph - N/A   Scattered Clouds
3:45 PM 87.8 °F 97.6 °F 75.2 °F 66% 29.90 in 14.0 mi SW 10.4 mph - N/A   Mostly Cloudy
4:44 PM 86.0 °F 96.9 °F 77.0 °F 74% 29.88 in 14.0 mi WSW 9.2 mph - N/A   Mostly Cloudy
5:49 PM 82.4 °F 90.9 °F 77.0 °F 84% 29.90 in 15.0 mi WSW 9.2 mph - N/A   Mostly Cloudy
6:41 PM 82.4 °F 89.5 °F 75.2 °F 79% 29.90 in 14.0 mi WSW 8.1 mph - N/A   Mostly Cloudy
7:41 PM 80.6 °F 87.1 °F 77.0 °F 89% 29.91 in 11.0 mi West 8.1 mph - N/A   Mostly Cloudy
8:45 PM 80.6 °F 87.1 °F 77.0 °F 89% 29.93 in 10.0 mi NNW 5.8 mph - N/A   Overcast
9:41 PM 80.6 °F 87.1 °F 77.0 °F 89% 29.95 in 10.0 mi North 5.8 mph - N/A   Overcast
10:40 PM 78.8 °F - 77.0 °F 94% 29.95 in 10.0 mi West 5.8 mph - N/A   Mostly Cloudy
11:48 PM 80.6 °F 87.1 °F 77.0 °F 89% 29.96 in 10.0 mi NNW 6.9 mph - N/A Rain , Thunderstorm Light Thunderstorms and Rain